GSAT0207 (GALILEO 15)

Last updated on Wed Aug 19 2026 00:02:49 GMT+0000 (Coordinated Universal Time)

1 41859U 16069A 26229.92373374 -.00000029 00000+0 00000+0 0 9998 2 41859 55.5361 99.3766 0003600 352.1911 7.8843 1.70473684 60450
UTC large
Height (km)
Speed (km/s)
/
Latitude / Longitude
Inclination (degrees)
Orbital Period (minutes)
Azimuth
Elevation
Range (km)
Doppler Factor

Next 0 passes for location: London (51.5072 / 0.1276)

No passes found over London.
GSAT0207 (GALILEO 15)